Regional Weather Roundup
Issued by NWS Boston, MA

Home | Current Version | Previous Version | Text Only | Print | Product List | Glossary On
Versions: 1 2 3 4 5 6 7 8 9 10 11 12 13 14 15 16 17 18 19 20 21 22 23 24 25 26 27 28 29 30 31 32 33 34 35 36 37 38 39 40 41 42 43 44 45 46 47 48 49 50
000
ASUS41 KBOX 261810
RWRBOX

REGIONAL WEATHER ROUNDUP
NATIONAL WEATHER SERVICE TAUNTON MA
200 PM EDT WED APR 26 2017

NOTE:  "FAIR" INDICATES FEW OR NO CLOUDS BELOW 12,000 FEET WITH NO
SIGNIFICANT WEATHER AND/OR OBSTRUCTIONS TO VISIBILITY.

MAZALL-261900-
EASTERN MASSACHUSETTS

CITY           SKY/WX    TMP DP  RH WIND       PRES   REMARKS
BOSTON         RAIN      53  53 100 E9        29.85S VSB 1/4
6HR MIN TEMP:  50; 6HR MAX TEMP:  56; 6HR PCP:  0.06;

BEVERLY        FOG       56  56 100 E7        29.85F VSB 1
LAWRENCE       LGT RAIN  59  57  93 VRB6      29.87F FOG
BEDFORD        CLOUDY    58  54  86 N7        29.84F
BLUE HILL        N/A     59  57  93 SE8       29.83F
NORWOOD        LGT RAIN  58  57  97 CALM      29.83S FOG
MARSHFIELD     DRZL/FOG  55  55 100 SE9G16    29.83F VSB 1/2
PLYMOUTH       CLOUDY    60  59  96 VRB7G17   29.83S FOG
TAUNTON        CLOUDY    60  58  92 SE6       29.82F FOG
NEW BEDFORD    FOG       57  57 100 SE9       29.81F VSB 1/4
$$

MAZALL-261900-
CAPE COD AND THE ISLANDS

CITY           SKY/WX    TMP DP  RH WIND       PRES   REMARKS
FALMOUTH       FOG       57  57 100 MISG      29.83F VSB 1/2
HYANNIS        FOG       55  54  96 SE12G23   29.82F VSB 1/2
CHATHAM        FOG       54  54 100 SE13G24   29.85S VSB 1/4
PROVINCETOWN   CLOUDY    57  56  96 SE17G24   29.85F FOG
NANTUCKET      FOG       54  54 100 SE23      29.81F VSB 1/2
MARTHAS VNYRD  FOG       58  57  97 SE20G32   29.80F VSB 1/2
$$

MAZALL-261900-
CENTRAL AND WESTERN MASSACHUSETTS

CITY           SKY/WX    TMP DP  RH WIND       PRES   REMARKS
WORCESTER      FOG       52  50  93 NE8       29.84S VSB 1
6HR MIN TEMP:  45; 6HR MAX TEMP:  52; 6HR PCP:  0.11;

FITCHBURG      CLOUDY    55  53  93 N8        29.87S
ORANGE         LGT RAIN  57  54  89 NE8       29.85S
SPRINGFIELD    CLOUDY    58  54  85 NE7       29.81F
WESTFIELD      CLOUDY    57  54  89 N9        29.82F
NORTH ADAMS    CLOUDY    62  54  74 E9        29.82F
PITTSFIELD     CLOUDY    60  53  77 NE9       29.81S
$$

RIZALL-261900-
RHODE ISLAND

CITY           SKY/WX    TMP DP  RH WIND       PRES   REMARKS
PROVIDENCE     LGT RAIN  58  58 100 SW3       29.82S FOG
6HR MIN TEMP:  57; 6HR MAX TEMP:  60; 6HR PCP:  0.18;

NEWPORT        FOG       56  56 100 SE8       29.80F VSB 1/4
SMITHFIELD     LGT RAIN  54  54 100 N8        29.83F
WESTERLY       CLOUDY    57  57 100 CALM      29.80S FOG
$$

CTZALL-261900-
CONNECTICUT

CITY           SKY/WX    TMP DP  RH WIND       PRES   REMARKS
BRADLEY INTL   CLOUDY    58  54  86 N12       29.82S
6HR MIN TEMP:  50; 6HR MAX TEMP:  58; 6HR PCP:  0.04;

HARTFORD       CLOUDY    58  55  90 N9        29.80F
BRIDGEPORT     CLOUDY    63  55  75 NE10      29.78R
DANBURY        CLOUDY    57  56  96 E8        29.80S
GROTON         CLOUDY    57  56  96 E9        29.79S FOG
NEW HAVEN      CLOUDY    62  56  80 NE10      29.78R
CHESTER        CLOUDY    59  57  94 NE8G15    29.79S
MERIDEN        CLOUDY    59  54  83 NE9       29.80S
WILLIMANTIC    CLOUDY    60  56  86 NE10      29.82R
OXFORD         CLOUDY    57  50  77 NE9       29.80F
$$

MEZ002-015-021-024-NHZ003-005-008-011-012-014-VTZ005-008-261900-
NORTHERN NEW ENGLAND

CITY           SKY/WX    TMP DP  RH WIND       PRES   REMARKS
PORTLAND ME    RAIN      53  52  96 E8        29.93F VSB 1
6HR MIN TEMP:  47; 6HR MAX TEMP:  53; 6HR PCP:  0.44;

BANGOR ME      LGT RAIN  55  54  96 SE7       30.01F FOG
CONCORD NH     CLOUDY    54  52  93 N7        29.89F FOG
MANCHESTER NH  CLOUDY    54  51  90 NE6       29.86F FOG
NASHUA NH      CLOUDY    54  54 100 N6        29.88F FOG
PORTSMOUTH NH  DRZL/FOG  54  53  99 E5        29.88S VSB 1/2
JAFFREY NH     LGT RAIN  53  53 100 VRB3      29.87F FOG
KEENE NH       CLOUDY    57  51  80 N7        29.86S
BURLINGTON VT  PTSUNNY   67  53  61 W8        29.84F
MT. WASHINGTON LGT RAIN  45  45 100 SE44G53     N/A  VSB 1/16
$$

NYZ052-076-261900-
EASTERN NEW YORK

CITY           SKY/WX    TMP DP  RH WIND       PRES   REMARKS
ALBANY         PTSUNNY   66  56  70 VRB5      29.81F
6HR MIN TEMP:  51; 6HR MAX TEMP:  66; 6HR PCP:  0.02;

NEW YORK CITY  CLOUDY    58  55  90 NE10      29.77S
6HR MIN TEMP:  54; 6HR MAX TEMP:  60; 6HR PCP:  0.12;

$$

ANZALL-261900-
MARINE OBSERVATIONS

STATION/POSITION TIME  TEMP    WIND        PRES    VSBY  WAVE
                       AIR SEA DIR/SP/G                  HT/PER
                 (UTC) (F)     (DEG/KT/KT) (MB)    (MI)  (FT/S)
BOSTON BUOY      1650   50 46  120/ 10/ 12 1010.2          5/ 7
BUZZARDS BAY     1700   53     120/ 10/ 10 1009.8R
NANTUCKET SOUND  1750      48              1009.2F         4/ 4
MASS BAY-STELLWA 1704   49 46  120/ 12/ 14 1010.5F         5/ 7
ISLE OF SHOALS   1700   51     130/  8/ 10 1012.2F
S OF BLOCK IS    1755      47                N/A          11/12
$$

......................KEY.........................
  SKY/WX - SKY CONDITION/PRESENT WEATHER
  TMP    - TEMPERATURE IN FAHRENHEIT
  DWPT   - DEWPOINT IN FAHRENHEIT
  RH     - RELATIVE HUMIDITY IN PERCENT
  WIND   - DIRECTION AND SPEED IN MPH
  PRES   - MEAN SEA LEVEL PRESSURE IN INCHES OF HG
  WCI    - WIND CHILL INDEX
  VSB    - VISIBILITY IN MILES
  HX     - HEAT INDEX
  TC     - TEMPERATURE IN CELSIUS
  VRB    - VARIABLE WIND DIRECTION
  N/A    - NOT AVAILABLE



USA.gov is the U.S. government's official web portal to all federal, state and local government web resources and services.